Location: Milton Keynes
(52.0316°N, 0.7531°W)
Time: 00:36:43
(UTC+01:00)

OTV 5 (USA 277) - Visible Passes

Search period start: 22 October 2019 00:00
Search period end: 31 October 2019 23:00
Orbit: 310 x 324 km, 54.5° (Epoch: 17 October)

Date Brightness Start Highest point End Pass type
(mag) Time Alt. Az. Time Alt. Az. Time Alt. Az.
29 Oct ? 18:52:54 10° SSW 18:53:10 12° SSW 18:53:10 12° SSW visible
30 Oct ? 19:07:02 10° SW 19:07:33 14° SW 19:07:33 14° SW visible
31 Oct ? 17:48:08 10° S 17:50:12 19° SE 17:50:56 17° ESE visible
31 Oct ? 19:21:29 10° WSW 19:21:50 13° WSW 19:21:50 13° WSW visible
